Theta_e
306 308 307 307 308 305 303 304 307 306 304 305 305 305 307 308 310 310 308 307 307 308 307 307 306 306 307 308 307 307 308 310 310 310 310 310 310 310 310 310 310 309 310 310
305 307 307 308 307 307 306 307 305 305 307 308 308 308 309 312 311 308 305 304 305 303 304 304 303 305 305 307 307 305 305 307 308 308 308 307 307 306 304 304 304 302 302 299
305 306 308 309 308 307 307 306 308 309 309 308 309 310 312 310 307 305 303 303 302 301 303 303 304 303 305 304 306 306 304 304 302 302 304 305 304 302 303 301 300 299 296 297
308 306 312 307 306 307 307 307 306 307 309 309 309 311 311 308 307 304 301 301 302 300 302 302 303 303 304 304 305 304 302 300 299 299 300 300 299 299 300 298 298 298 298 298
310 309 307 313 309 307 309 313 307 307 308 308 310 312 309 308 305 302 301 301 300 300 301 302 302 302 303 304 303 303 301 299 298 298 298 298 299 298 296 297 297 297 297 297
306 307 310 307 311 309 309 319 313 308 311 310 313 316 313 307 304 301 300 299 300 300 300 299 299 299 300 301 300 300 300 299 298 298 297 297 296 296 297 297 297 297 297 297
308 306 307 304 306 308 316 316 312 312 312 312 312 311 308 306 302 300 297 298 299 298 298 297 297 297 298 297 297 297 298 298 298 297 297 297 297 297 298 298 298 293 289 289
310 307 307 305 310 315 314 311 310 310 311 312 312 309 306 303 302 300 299 298 297 298 297 296 297 297 297 298 297 297 298 297 297 297 298 297 298 296 290 290 289 289 288 288
306 307 305 307 309 310 310 309 310 310 309 309 310 308 306 304 303 301 299 297 297 297 296 298 298 297 298 296 297 297 297 298 298 298 294 290 290 290 290 289 288 288 287 286
308 308 305 308 310 310 312 311 311 309 308 308 310 308 307 305 304 302 300 298 297 298 298 299 299 298 299 298 298 298 299 298 293 290 290 290 290 289 288 287 287 286 286 285
306 306 309 311 311 312 315 312 312 310 308 308 309 308 308 307 305 303 302 301 301 300 300 300 300 300 299 299 299 298 294 290 290 289 289 290 290 289 287 287 286 286 285 284
307 308 308 309 310 310 311 312 311 310 309 309 309 309 309 307 306 304 303 302 302 302 301 301 300 300 299 299 298 293 291 290 289 289 290 290 288 287 287 287 286 285 284 283
307 308 309 310 310 310 311 310 310 309 308 309 309 308 309 310 307 304 303 301 301 301 301 302 301 300 299 297 293 291 290 290 289 289 290 288 287 286 286 285 284 283 283 282
308 309 309 309 309 309 310 310 309 308 308 309 309 308 307 308 307 305 304 302 300 300 302 302 300 299 298 295 293 291 290 289 289 290 289 287 286 286 286 285 284 283 283 282
306 306 305 305 306 308 308 308 308 308 308 308 308 308 307 307 306 306 304 303 301 302 301 300 300 299 298 295 294 292 289 289 289 289 287 287 286 286 285 284 283 283 282 282
304 304 304 304 305 305 307 308 308 308 308 307 307 307 307 307 306 305 304 303 303 302 302 300 300 299 297 295 294 291 289 289 290 288 287 287 286 285 284 284 283 283 282 282
300 301 302 303 303 304 305 306 307 307 307 306 306 306 306 305 304 304 303 302 302 302 302 301 300 297 295 294 294 291 289 289 290 288 287 286 286 284 284 284 283 283 282 281
299 299 300 300 302 303 304 305 306 306 307 307 304 304 304 304 304 304 303 302 300 299 300 300 298 296 295 295 293 290 289 290 289 287 287 286 285 284 284 283 283 283 282 281
300 300 301 302 303 304 305 305 306 305 306 306 304 304 303 303 303 302 301 300 300 300 300 299 297 295 294 295 292 289 289 290 288 287 287 286 284 284 283 283 283 282 282 281
299 300 300 301 302 302 303 304 305 306 306 304 302 301 301 300 301 301 301 300 300 301 300 300 298 294 294 293 291 289 290 290 288 287 286 286 284 284 283 283 283 282 282 281
298 298 299 300 301 300 300 301 302 302 302 301 300 300 299 299 299 299 299 299 300 299 299 300 299 294 294 293 291 289 290 289 287 287 286 285 284 283 283 283 282 282 282 282
297 298 299 300 300 300 301 300 299 299 300 300 300 300 298 298 298 297 298 299 299 298 299 300 295 293 294 293 290 289 290 288 287 286 286 284 283 283 283 283 282 282 282 281
298 299 299 299 299 299 300 300 300 300 300 300 300 300 299 299 299 299 299 299 299 300 300 296 294 293 293 291 289 290 289 288 287 286 286 284 283 283 283 283 282 282 282 281
297 298 299 298 297 297 298 299 299 300 299 299 299 299 299 300 301 300 299 300 301 300 297 295 294 293 294 291 289 290 289 287 286 286 285 284 283 283 283 283 282 282 281 281
291 294 296 297 298 297 296 296 296 298 299 300 299 298 297 297 297 297 297 298 297 296 294 293 293 293 293 290 289 289 288 287 286 286 285 284 283 283 283 283 282 282 281 281
289 289 290 292 294 295 296 296 296 295 296 296 298 299 299 300 299 297 296 295 297 297 294 293 293 293 292 289 289 289 288 287 286 286 285 283 283 283 283 282 282 282 281 281
287 287 287 288 288 292 294 295 296 296 295 295 295 296 297 298 298 298 297 295 295 295 294 293 293 293 291 289 289 289 287 286 286 285 284 283 283 283 283 282 282 282 282 283
Wind_Speed
1 2 3 4 4 7 5 5 5 2 5 6 7 7 12 15 7 9 10 11 8 9 7 7 7 9 12 12 12 13 11 10 12 13 10 7 7 6 8 11 14 16 18 21
3 1 4 3 4 7 8 3 7 1 13 13 20 14 8 1 6 5 7 8 6 4 5 7 9 11 11 11 14 15 12 11 9 7 5 3 4 4 5 8 11 16 19 22
2 2 1 4 9 11 5 4 8 7 9 6 5 3 1 3 2 3 5 5 4 3 4 6 8 8 10 12 14 15 13 9 8 8 8 6 2 4 5 10 14 16 19 18
1 2 2 3 1 7 12 4 11 6 9 10 10 7 5 3 1 3 3 2 2 1 3 5 7 8 10 11 12 13 10 8 8 8 8 7 9 12 14 17 18 18 16 16
1 2 5 1 2 5 5 1 9 13 13 14 10 4 3 1 1 0 1 1 0 2 4 5 6 8 9 9 9 8 7 7 8 8 9 11 12 14 17 16 17 16 16 15
1 1 2 2 0 2 2 3 3 9 6 4 1 2 1 3 1 1 1 2 2 4 3 3 5 6 6 5 6 7 8 9 12 13 14 15 15 15 16 16 17 16 14 11
2 2 5 5 4 3 1 3 3 2 7 5 3 3 3 4 3 3 4 4 4 4 2 3 6 7 6 10 13 14 15 16 16 16 17 18 18 16 14 13 11 13 11 11
2 0 5 4 1 1 1 6 12 11 7 5 5 6 6 6 5 4 4 5 5 4 3 6 9 7 14 17 19 19 19 19 19 18 16 15 13 14 14 13 11 11 9 8
6 5 4 3 4 8 13 16 11 7 7 5 6 8 8 7 4 4 5 6 7 6 8 9 10 13 16 20 18 20 19 17 16 15 15 15 13 12 11 9 7 7 6 5
1 1 7 11 11 8 8 9 9 8 6 5 7 9 10 9 6 6 8 10 10 11 13 16 17 17 19 21 18 16 15 15 15 13 13 12 10 9 8 7 6 6 6 5
4 7 8 5 4 7 8 13 11 9 6 5 7 10 10 10 8 9 11 15 15 17 19 20 19 18 18 17 16 15 16 15 13 11 10 8 7 6 5 5 5 5 6 7
5 7 5 9 10 15 14 17 12 10 6 5 7 10 11 12 11 12 16 19 19 19 19 19 19 18 16 15 13 13 13 12 10 8 7 6 5 5 6 7 8 9 10 11
3 4 10 15 16 12 12 9 8 9 7 6 8 13 14 15 14 15 18 21 21 20 19 18 17 16 15 13 13 11 9 9 7 6 4 4 4 5 5 6 8 10 10 11
8 9 7 3 4 13 10 8 7 7 8 8 9 14 16 17 19 19 20 21 23 21 19 17 17 16 14 13 12 10 9 7 5 3 3 2 2 3 6 7 8 9 11 10
8 7 11 14 13 10 8 8 9 9 9 9 11 14 19 21 23 23 23 22 23 22 20 19 19 18 15 14 12 9 8 5 4 3 2 1 3 5 7 8 9 10 11 11
13 16 14 9 9 9 11 11 11 9 9 10 12 15 17 19 21 23 26 27 28 28 24 22 20 18 16 14 12 10 8 6 4 2 1 3 5 6 7 9 10 11 11 12
14 13 14 19 15 14 15 14 15 14 13 12 12 14 17 19 20 24 27 29 27 24 24 22 20 18 16 14 11 10 8 5 3 3 3 4 6 7 8 10 11 11 11 12
12 14 16 18 20 19 19 18 19 19 16 13 14 16 18 20 23 25 27 28 26 26 25 24 21 18 16 14 12 10 7 5 5 5 4 5 7 7 9 11 12 11 11 11
9 12 14 15 16 17 20 19 18 18 18 16 16 17 17 18 20 22 26 28 30 31 29 27 22 19 17 15 13 10 8 7 7 5 5 7 7 8 10 11 12 12 11 11
8 9 10 11 11 12 13 12 12 13 14 14 15 16 17 18 19 20 23 28 31 31 28 28 26 20 18 16 13 11 9 8 7 7 7 8 8 9 11 12 13 12 12 11
9 8 8 8 7 6 4 3 4 7 10 12 13 14 15 15 17 20 23 27 27 27 27 26 23 22 19 16 14 12 10 10 8 8 8 8 8 10 12 13 14 13 13 12
13 12 11 8 8 7 4 2 3 5 8 10 12 13 14 16 16 18 19 21 22 26 27 27 23 20 17 16 14 13 11 11 9 8 8 9 9 11 13 14 14 14 14 14
14 16 15 12 9 8 6 4 2 2 3 5 7 9 11 11 13 16 18 18 22 24 24 23 21 20 18 16 15 14 12 11 10 8 9 10 10 12 14 15 15 15 15 14
9 11 13 13 12 10 7 5 3 1 2 3 5 6 7 9 11 13 13 16 21 23 22 23 22 21 19 17 16 14 12 11 9 9 10 10 11 13 14 15 15 15 15 16
10 9 9 9 10 10 9 8 6 3 3 4 5 6 7 8 9 11 14 17 20 21 22 23 22 21 19 18 17 14 13 11 10 10 10 11 12 14 15 15 15 15 15 16
10 10 11 11 10 10 9 9 7 6 6 6 7 8 10 11 11 12 13 15 18 19 22 24 24 23 20 19 17 15 13 11 10 10 11 12 13 14 15 15 15 16 17 15
10 11 10 8 9 10 9 8 8 7 7 7 8 9 10 13 16 17 19 19 20 20 22 24 24 22 20 19 17 15 13 12 11 11 11 11 13 14 15 14 15 16 14 14
Wind_Direction
203 119 153 186 175 178 177 183 173 247 215 270 271 282 285 315 319 344 349 355 2 4 360 27 25 14 8 1 10 13 7 9 7 349 332 301 272 258 244 222 211 200 197 188
9 90 223 260 227 200 221 221 261 259 284 263 269 286 300 263 323 335 347 354 351 348 -0 24 19 12 11 18 22 21 18 24 16 355 339 312 285 243 201 189 179 174 164 157
291 359 341 288 223 196 187 205 208 211 231 268 265 272 171 284 298 343 333 334 329 332 6 10 23 26 29 34 31 24 22 26 34 33 34 40 86 129 131 141 146 144 141 142
245 348 230 241 239 186 203 196 216 260 256 258 285 294 300 317 294 329 310 305 316 11 18 22 28 30 29 29 26 25 33 43 61 70 85 106 111 115 124 133 136 137 131 132
237 241 291 113 169 142 179 244 205 227 263 276 288 275 245 199 327 0 324 309 236 52 39 37 38 35 27 21 29 30 57 68 72 81 98 115 117 113 113 122 124 129 135 139
141 160 208 231 101 169 237 124 192 204 257 281 212 276 151 190 186 125 175 167 117 76 69 60 42 36 38 46 60 81 77 80 89 100 110 109 111 121 124 126 127 131 134 126
246 252 286 249 277 227 147 191 311 300 287 277 197 219 176 181 153 141 155 143 117 117 106 60 56 67 95 100 103 99 100 103 104 109 115 115 117 115 117 119 122 106 106 101
153 228 285 201 304 127 237 295 312 307 295 279 226 190 175 166 145 137 135 141 139 127 104 93 91 90 113 111 104 107 110 110 112 112 113 112 112 112 106 99 95 91 79 66
183 214 242 199 269 306 306 299 313 308 308 287 214 191 181 169 157 135 142 147 143 133 128 111 118 123 127 113 112 114 116 117 120 121 119 111 105 100 96 94 84 72 58 41
46 243 237 264 298 269 305 313 313 310 302 260 221 194 184 178 162 139 139 144 139 134 131 126 118 120 116 115 118 120 125 125 120 119 114 110 103 93 82 72 57 39 21 4
250 286 296 153 58 12 344 314 316 311 302 283 219 195 192 178 168 147 139 136 139 134 135 133 132 133 133 131 134 139 135 130 126 118 106 97 93 89 79 59 36 17 359 352
224 237 232 266 292 315 303 294 284 289 286 279 218 203 192 184 177 161 152 149 150 150 149 146 148 143 134 136 140 141 138 133 127 119 112 104 92 69 42 22 8 0 352 348
254 305 286 287 291 299 300 289 274 268 262 265 219 209 200 192 185 169 167 163 165 165 160 155 152 148 154 150 146 147 147 137 131 124 111 88 55 31 7 356 352 350 342 332
274 292 298 295 285 303 290 288 272 261 266 258 236 216 213 201 192 188 181 175 171 170 168 167 166 168 167 161 159 160 159 151 140 129 115 91 34 2 354 349 341 333 330 327
235 266 291 296 294 297 302 283 271 267 267 258 239 227 218 215 203 194 186 182 178 173 179 180 182 180 177 174 172 171 169 168 169 165 149 18 353 344 342 339 336 335 335 336
274 280 296 289 298 294 281 281 274 265 265 258 244 231 226 226 216 203 194 191 190 186 186 191 190 189 186 183 183 182 181 184 184 185 305 324 328 334 335 336 338 338 338 335
300 304 295 298 299 289 279 274 266 263 265 261 249 232 223 222 217 211 205 200 198 199 194 195 191 192 191 189 189 188 192 197 210 247 281 307 320 327 332 335 337 337 336 335
289 289 290 292 295 293 286 277 263 254 261 267 244 231 225 223 222 216 209 203 197 193 195 192 194 195 193 194 195 196 202 216 233 249 277 303 316 320 327 332 334 334 333 331
295 294 296 293 292 285 281 274 263 253 246 250 239 232 230 228 225 221 212 205 201 198 195 189 193 196 199 197 201 204 214 227 237 254 282 299 307 316 326 329 330 329 327 325
317 312 309 305 297 290 285 270 254 240 238 233 225 224 224 223 220 216 212 211 208 203 198 193 187 197 199 201 204 211 222 233 243 260 278 296 303 317 324 324 324 321 319 318
357 351 345 342 336 323 309 277 234 220 217 221 227 229 227 223 219 215 212 210 209 203 201 198 189 198 201 204 210 218 228 237 247 263 279 296 305 315 320 320 318 316 314 312
18 15 7 -0 359 354 335 300 246 234 234 234 230 222 222 223 217 214 215 215 202 198 198 192 193 201 207 210 216 223 232 239 250 266 284 298 304 311 316 315 313 312 311 310
17 16 9 7 9 10 6 353 298 238 226 221 221 219 217 217 216 210 205 196 193 195 195 192 198 206 211 214 221 228 234 241 252 268 287 296 301 308 312 313 313 310 309 309
359 3 8 4 1 -0 350 350 356 295 221 209 203 207 216 213 205 204 203 198 194 193 197 200 203 211 216 219 226 231 236 242 252 269 286 294 299 308 312 312 309 307 309 311
355 350 347 348 352 357 356 349 341 311 278 258 231 216 213 212 210 208 207 205 201 204 202 206 209 217 218 223 227 232 237 244 257 273 289 295 301 309 311 311 309 309 311 312
341 346 349 343 340 341 344 346 341 326 302 277 259 244 229 218 214 211 205 205 210 209 209 211 215 221 220 223 228 232 237 245 257 273 287 294 302 308 309 309 308 311 313 313
337 335 332 329 327 319 322 327 332 333 320 304 284 264 250 238 227 215 205 207 209 206 213 216 220 225 224 226 229 233 236 245 257 273 285 295 301 306 309 309 309 310 308 310